Regional Weather Roundup
Issued by NWS Bismarck, ND

Home | Current Version | Previous Version | Text Only | Print | Product List | Glossary On
Versions: 1 2 3 4 5 6 7 8 9 10 11 12 13 14 15 16 17 18 19 20 21 22 23 24 25 26 27 28 29 30 31 32 33 34 35 36 37 38 39 40 41 42 43 44 45 46 47 48 49 50
297
ASUS43 KBIS 071602
RWRBIS

NWR BROADCAST TEXT
NATIONAL WEATHER SERVICE BISMARCK ND
1000 AM CST SUN FEB 07 2016

NOTE: "FAIR" INDICATES FEW OR NO CLOUDS BELOW 12,000 FEET WITH NO
SIGNIFICANT WEATHER AND/OR OBSTRUCTIONS TO VISIBILITY.


CITY           SKY/WX    TMP DP  RH WIND       PRES   REMARKS
WILLISTON      PTSUNNY   31  20  63 NW30G49   30.06R WCI  16
MINOT          FLURRIES  29  16  58 NW29G43   29.86R WCI  14
MINOT AFB      MIX PCPN  26  18  69 NW29G41   29.85R WCI  10
BISMARCK       CLOUDY    34  21  59 NW32G60   29.85R WCI  20
DICKINSON      LGT SNOW  28  21  75 NW32G41   29.98R WCI  12
GARRISON         N/A     27  18  69 NW39G58   29.86R WCI   9
HETTINGER ARPT CLOUDY    31  20  63 NW40G56   30.01R WCI  14
JAMESTOWN      CLOUDY    33  27  78 NW29G38   29.69R WCI  19
CARRINGTON     FLURRIES  30  32 100 NW36G45   29.71R WCI  14
OAKES          FLURRIES  34  30  86 W30       29.70S
$$

CITY           SKY/WX    TMP DP  RH WIND       PRES   REMARKS
GRAND FORKS    LGT SNOW  32  28  85 N21       29.60R VSB 3/4 WCI  20
GRAND FORKS AF LGT SNOW  32  30  93 N18G26    29.60R FOG
DEVILS LAKE    FLURRIES  30  24  78 NW30G41   29.67R WCI  15
FARGO          LGT SNOW  36  30  79 W22       29.61R
GWINNER        CLOUDY    36  32  87 W25       29.68S
$$

CITY           SKY/WX    TMP DP  RH WIND       PRES   REMARKS
ABERDEEN       LGT SNOW  35  28  75 W22G40    29.79R
MOBRIDGE       LGT SNOW  33  29  85 NW25G36   29.84R FOG
BUFFALO          N/A     35  13  40 NW52G64   29.99R WCI  18
RAPID CITY     SUNNY     36  10  34 NW45G60   30.11S
GLASGOW        SUNNY     29  18  63 NW25G33   30.26R WCI  14
SIDNEY         SUNNY     34  18  51 NW37G44   30.12R WCI  19
WOLF POINT     SUNNY     34  19  54 NW26G36   30.24R
GLENDIVE       SUNNY     32  18  55 NW38G49   30.16R WCI  16
MILES CITY     SUNNY     34  14  43 NW30G40   30.27R
BAKER          SUNNY     32  13  45 NW43G60   30.13R WCI  15
$$

CITY           SKY/WX    TMP DP  RH WIND       PRES   REMARKS
BILLINGS       MOSUNNY   32  15  49 NW16      30.41R
GREAT FALLS    CLOUDY    26  17  68 SW9       30.45R WCI  17
$$





USA.gov is the U.S. government's official web portal to all federal, state and local government web resources and services.